Volver al catálogo

DELTA 1 DEB

ActivoHEO
NORAD 4841·DEBRIS·🇺🇸 United States

Lanzado Jul 4, 1968 desde Vandenberg Space Force Base

Loading…

Próximos Pases

TLE

Source: Space-Track
1  4841U 68055D   26226.25806580  .00000098  00000-0  19210-3 0  9996
2  4841 120.7179 332.0533 2698388 240.8322 128.6039  9.29289152140832

Sigue DELTA 1 DEB en tiempo real con AllMySat

Download on the App Store